{"data":{"norad_id":61192,"intl_designator":"2024-169D","name":"JILIN-01 KUANFU 02B 4","alt_names":[],"object_type":"PAYLOAD","status":"ACTIVE","operator":null,"country":"PRC","launch_date":"2024-09-20","launch_site_code":"TAISC","launch_vehicle":null,"mission":null,"orbit_class":"UNKNOWN","rcs_meters":null,"size_class":null,"mass_kg":null,"dimensions":null,"purposes":[],"wikipedia_slug":null,"has_3d_model":false,"image_url":null,"decayed_at":null,"tle_current":{"epoch":"2026-09-22T20:54:24.811200Z","epoch_age_seconds":89751,"freshness":"FRESH","line1":"1 61192U 24169D   26265.87112050  .00002662  00000+0  17012-3 0  9995","line2":"2 61192  97.5498 353.2194 0011862 292.8773  67.1203 15.09448381110561","mean_motion":15.09448381,"eccentricity":0.0011862,"inclination_deg":97.5498,"raan_deg":353.2194,"arg_perigee_deg":292.8773,"mean_anomaly_deg":67.1203,"bstar":0.00017012,"rev_number":11056,"period_min":95.399088708553,"perigee_km":529.68065161726,"apogee_km":546.08822087261,"semimajor_km":6916.0214362449,"source":"CELESTRAK","updated_at":"2026-09-23T09:00:20.812995Z"}}}